Time,TemperatureF,DewpointF,PressureIn,WindDirection,WindDirectionDegrees,WindSpeedMPH,WindSpeedGustMPH,Humidity,HourlyPrecipIn,Conditions,Clouds,dailyrainin,SoftwareType,DateUTC
2013-07-06 00:01:00,71.2,67.8,30.13,East,88,0.0,0.0,89,0.00,,,0.00,Wunderground v.1.15,2013-07-06 04:01:00,
2013-07-06 00:02:00,71.3,68.2,30.13,East,88,0.0,0.0,90,0.00,,,0.00,Wunderground v.1.15,2013-07-06 04:02:00,
2013-07-06 00:04:00,71.3,68.2,30.13,East,88,0.0,0.0,90,0.00,,,0.00,Wunderground v.1.15,2013-07-06 04:04:00,
2013-07-06 00:05:00,71.3,68.2,30.13,East,88,0.0,0.0,90,0.00,,,0.00,Wunderground v.1.15,2013-07-06 04:05:00,
2013-07-06 00:06:00,71.3,68.2,30.12,East,88,0.0,0.0,90,0.00,,,0.00,Wunderground v.1.15,2013-07-06 04:06:00,
2013-07-06 00:11:00,71.2,68.1,30.12,East,88,0.0,0.0,90,0.00,,,0.00,Wunderground v.1.15,2013-07-06 04:11:00,
2013-07-06 00:16:00,71.2,68.4,30.13,East,88,0.0,0.0,91,0.00,,,0.00,Wunderground v.1.15,2013-07-06 04:16:00,
2013-07-06 00:22:00,71.0,68.2,30.13,East,88,0.0,0.0,91,0.00,,,0.00,Wunderground v.1.15,2013-07-06 04:22:00,
2013-07-06 00:27:00,70.9,68.1,30.13,East,88,0.0,0.0,91,0.00,,,0.00,Wunderground v.1.15,2013-07-06 04:27:00,
2013-07-06 00:33:00,70.8,68.0,30.13,East,88,0.0,0.0,91,0.00,,,0.00,Wunderground v.1.15,2013-07-06 04:33:00,
2013-07-06 00:39:00,70.7,67.9,30.13,East,88,0.0,0.0,91,0.00,,,0.00,Wunderground v.1.15,2013-07-06 04:39:00,
2013-07-06 00:44:00,70.6,67.8,30.13,East,88,0.0,0.0,91,0.00,,,0.00,Wunderground v.1.15,2013-07-06 04:44:00,
2013-07-06 00:50:00,70.6,68.2,30.12,East,88,0.0,0.0,92,0.00,,,0.00,Wunderground v.1.15,2013-07-06 04:50:00,
2013-07-06 00:55:00,70.6,68.2,30.13,East,88,0.0,0.0,92,0.00,,,0.00,Wunderground v.1.15,2013-07-06 04:55:00,
2013-07-06 01:00:00,70.7,68.3,30.14,East,88,0.0,1.0,92,0.77,,,0.04,Wunderground v.1.15,2013-07-06 05:00:00,
2013-07-06 01:06:00,70.8,68.7,30.14,SSE,163,0.0,1.0,93,0.28,,,0.14,Wunderground v.1.15,2013-07-06 05:06:00,
2013-07-06 01:12:00,70.8,68.7,30.14,SSE,163,0.0,0.0,93,0.19,,,0.16,Wunderground v.1.15,2013-07-06 05:12:00,
2013-07-06 01:17:00,70.8,68.7,30.14,SSE,163,0.0,0.0,93,0.08,,,0.16,Wunderground v.1.15,2013-07-06 05:17:00,
2013-07-06 01:23:00,70.6,68.5,30.14,SSE,163,0.0,0.0,93,0.04,,,0.16,Wunderground v.1.15,2013-07-06 05:23:00,
2013-07-06 01:28:00,70.5,68.4,30.13,SSE,163,0.0,0.0,93,0.00,,,0.16,Wunderground v.1.15,2013-07-06 05:28:00,
2013-07-06 01:33:00,70.3,68.5,30.14,SSE,163,0.0,0.0,94,0.00,,,0.16,Wunderground v.1.15,2013-07-06 05:33:00,
2013-07-06 01:39:00,70.2,68.4,30.14,SSE,163,0.0,0.0,94,0.00,,,0.16,Wunderground v.1.15,2013-07-06 05:39:00,
2013-07-06 01:44:00,70.1,68.3,30.13,SSE,163,0.0,0.0,94,0.00,,,0.16,Wunderground v.1.15,2013-07-06 05:44:00,
2013-07-06 01:50:00,70.0,68.2,30.14,SSE,163,0.0,0.0,94,0.00,,,0.16,Wunderground v.1.15,2013-07-06 05:50:00,
2013-07-06 01:55:00,69.9,68.1,30.14,SSE,163,0.0,0.0,94,0.00,,,0.16,Wunderground v.1.15,2013-07-06 05:55:00,
2013-07-06 02:00:00,69.9,68.1,30.14,SSE,163,0.0,0.0,94,0.00,,,0.16,Wunderground v.1.15,2013-07-06 06:00:00,
2013-07-06 02:06:00,69.9,68.4,30.14,SSE,163,0.0,0.0,95,0.00,,,0.16,Wunderground v.1.15,2013-07-06 06:06:00,
2013-07-06 02:11:00,69.9,68.4,30.14,SSE,163,0.0,0.0,95,0.00,,,0.16,Wunderground v.1.15,2013-07-06 06:11:00,
2013-07-06 02:17:00,69.9,68.4,30.14,SSE,163,0.0,0.0,95,0.00,,,0.16,Wunderground v.1.15,2013-07-06 06:17:00,
2013-07-06 02:22:00,69.9,68.4,30.14,SSE,163,0.0,0.0,95,0.00,,,0.16,Wunderground v.1.15,2013-07-06 06:22:00,
2013-07-06 02:28:00,69.9,68.4,30.14,SSE,163,0.0,0.0,95,0.00,,,0.16,Wunderground v.1.15,2013-07-06 06:28:00,
2013-07-06 02:33:00,69.9,68.4,30.14,SSE,163,0.0,0.0,95,0.00,,,0.16,Wunderground v.1.15,2013-07-06 06:33:00,
2013-07-06 02:39:00,69.8,68.3,30.14,SSE,163,0.0,0.0,95,0.00,,,0.16,Wunderground v.1.15,2013-07-06 06:39:00,
2013-07-06 02:44:00,69.8,68.3,30.14,SSE,163,0.0,0.0,95,0.00,,,0.16,Wunderground v.1.15,2013-07-06 06:44:00,
2013-07-06 02:50:00,69.9,68.4,30.14,SSE,163,0.0,0.0,95,0.00,,,0.16,Wunderground v.1.15,2013-07-06 06:50:00,
2013-07-06 02:55:00,69.8,68.3,30.14,SSE,163,0.0,0.0,95,0.00,,,0.16,Wunderground v.1.15,2013-07-06 06:55:00,
2013-07-06 03:00:00,69.8,68.3,30.14,SSE,163,0.0,0.0,95,0.00,,,0.16,Wunderground v.1.15,2013-07-06 07:00:00,
2013-07-06 03:06:00,69.8,68.3,30.14,SSE,163,0.0,0.0,95,0.00,,,0.16,Wunderground v.1.15,2013-07-06 07:06:00,
2013-07-06 03:11:00,69.8,68.3,30.14,SSE,163,0.0,0.0,95,0.00,,,0.16,Wunderground v.1.15,2013-07-06 07:11:00,
2013-07-06 03:17:00,69.8,68.3,30.14,SSE,163,0.0,0.0,95,0.00,,,0.16,Wunderground v.1.15,2013-07-06 07:17:00,
2013-07-06 03:22:00,69.8,68.6,30.14,SSE,163,0.0,0.0,96,0.00,,,0.16,Wunderground v.1.15,2013-07-06 07:22:00,
2013-07-06 03:28:00,69.8,68.6,30.14,SSE,163,0.0,0.0,96,0.00,,,0.16,Wunderground v.1.15,2013-07-06 07:28:00,
2013-07-06 03:33:00,69.8,68.3,30.14,SSE,163,0.0,0.0,95,0.00,,,0.16,Wunderground v.1.15,2013-07-06 07:33:00,
2013-07-06 03:39:00,69.7,68.2,30.14,SSE,163,0.0,0.0,95,0.00,,,0.16,Wunderground v.1.15,2013-07-06 07:39:00,
2013-07-06 03:44:00,69.7,68.2,30.14,SSE,163,0.0,0.0,95,0.00,,,0.16,Wunderground v.1.15,2013-07-06 07:44:00,
2013-07-06 03:50:00,69.7,68.5,30.14,SSE,163,0.0,0.0,96,0.00,,,0.16,Wunderground v.1.15,2013-07-06 07:50:00,
2013-07-06 03:55:00,69.6,68.4,30.14,SSE,163,0.0,0.0,96,0.00,,,0.16,Wunderground v.1.15,2013-07-06 07:55:00,
2013-07-06 04:00:00,69.6,68.4,30.14,SSE,163,0.0,0.0,96,0.00,,,0.16,Wunderground v.1.15,2013-07-06 08:00:00,
2013-07-06 04:06:00,69.5,68.0,30.14,SSE,163,0.0,0.0,95,0.00,,,0.16,Wunderground v.1.15,2013-07-06 08:06:00,
2013-07-06 04:11:00,69.4,67.9,30.14,SSE,163,0.0,0.0,95,0.00,,,0.16,Wunderground v.1.15,2013-07-06 08:11:00,
2013-07-06 04:17:00,69.3,67.8,30.13,SSE,163,0.0,0.0,95,0.00,,,0.16,Wunderground v.1.15,2013-07-06 08:17:00,
2013-07-06 04:22:00,69.2,67.7,30.13,SSE,163,0.0,0.0,95,0.00,,,0.16,Wunderground v.1.15,2013-07-06 08:22:00,
2013-07-06 04:28:00,69.2,67.7,30.14,SSE,163,0.0,0.0,95,0.00,,,0.16,Wunderground v.1.15,2013-07-06 08:28:00,
2013-07-06 04:33:00,69.2,68.0,30.14,SSE,163,0.0,0.0,96,0.00,,,0.16,Wunderground v.1.15,2013-07-06 08:33:00,
2013-07-06 04:39:00,69.2,68.0,30.13,SSE,163,0.0,0.0,96,0.00,,,0.16,Wunderground v.1.15,2013-07-06 08:39:00,
2013-07-06 04:44:00,69.1,67.9,30.13,SSE,163,0.0,0.0,96,0.00,,,0.16,Wunderground v.1.15,2013-07-06 08:44:00,
2013-07-06 04:49:00,69.0,67.8,30.14,SSE,163,0.0,0.0,96,0.00,,,0.16,Wunderground v.1.15,2013-07-06 08:49:00,
2013-07-06 04:55:00,68.9,67.7,30.14,SSE,163,0.0,0.0,96,0.00,,,0.16,Wunderground v.1.15,2013-07-06 08:55:00,
2013-07-06 05:00:00,68.8,67.3,30.14,SSE,163,0.0,0.0,95,0.00,,,0.16,Wunderground v.1.15,2013-07-06 09:00:00,
2013-07-06 05:06:00,68.8,67.3,30.14,SSE,163,0.0,0.0,95,0.00,,,0.16,Wunderground v.1.15,2013-07-06 09:06:00,
2013-07-06 05:11:00,68.7,67.5,30.13,SSE,163,0.0,0.0,96,0.00,,,0.16,Wunderground v.1.15,2013-07-06 09:11:00,
2013-07-06 05:16:00,68.7,67.5,30.14,SSE,163,0.0,0.0,96,0.00,,,0.16,Wunderground v.1.15,2013-07-06 09:16:00,
2013-07-06 05:22:00,68.7,67.5,30.14,SSE,163,0.0,0.0,96,0.00,,,0.16,Wunderground v.1.15,2013-07-06 09:22:00,
2013-07-06 05:27:00,68.6,67.4,30.14,SSE,163,0.0,0.0,96,0.00,,,0.16,Wunderground v.1.15,2013-07-06 09:27:00,
2013-07-06 05:33:00,68.5,67.3,30.14,SSE,163,0.0,0.0,96,0.00,,,0.16,Wunderground v.1.15,2013-07-06 09:33:00,
2013-07-06 05:38:00,68.3,67.1,30.14,SSE,163,0.0,0.0,96,0.00,,,0.16,Wunderground v.1.15,2013-07-06 09:38:00,
2013-07-06 05:44:00,68.3,67.1,30.14,SSE,163,0.0,0.0,96,0.00,,,0.16,Wunderground v.1.15,2013-07-06 09:44:00,
2013-07-06 05:49:00,68.2,67.0,30.14,SSE,163,0.0,0.0,96,0.00,,,0.16,Wunderground v.1.15,2013-07-06 09:49:00,
2013-07-06 05:55:00,68.2,67.0,30.14,SSE,163,0.0,0.0,96,0.00,,,0.16,Wunderground v.1.15,2013-07-06 09:55:00,
2013-07-06 06:00:00,68.2,67.0,30.14,SSE,163,0.0,0.0,96,0.00,,,0.16,Wunderground v.1.15,2013-07-06 10:00:00,
2013-07-06 06:06:00,68.1,66.9,30.14,SSE,163,0.0,0.0,96,0.00,,,0.16,Wunderground v.1.15,2013-07-06 10:06:00,
2013-07-06 06:12:00,68.0,66.8,30.14,SSE,163,0.0,0.0,96,0.00,,,0.16,Wunderground v.1.15,2013-07-06 10:12:00,
2013-07-06 06:17:00,67.9,66.7,30.14,SSE,163,0.0,0.0,96,0.00,,,0.16,Wunderground v.1.15,2013-07-06 10:17:00,
2013-07-06 06:23:00,67.9,66.7,30.14,SSE,163,0.0,0.0,96,0.00,,,0.16,Wunderground v.1.15,2013-07-06 10:23:00,
2013-07-06 06:28:00,68.0,66.8,30.14,SSE,163,0.0,0.0,96,0.00,,,0.16,Wunderground v.1.15,2013-07-06 10:28:00,
2013-07-06 06:34:00,68.1,66.9,30.14,SSE,163,0.0,0.0,96,0.00,,,0.16,Wunderground v.1.15,2013-07-06 10:34:00,
2013-07-06 06:39:00,68.4,67.2,30.14,SSE,163,0.0,0.0,96,0.00,,,0.16,Wunderground v.1.15,2013-07-06 10:39:00,
2013-07-06 06:45:00,68.6,67.4,30.14,SSE,163,0.0,0.0,96,0.00,,,0.16,Wunderground v.1.15,2013-07-06 10:45:00,
2013-07-06 06:50:00,68.9,67.7,30.14,SSE,163,0.0,0.0,96,0.00,,,0.16,Wunderground v.1.15,2013-07-06 10:50:00,
2013-07-06 06:56:00,69.0,68.1,30.14,SSE,163,0.0,0.0,97,0.00,,,0.16,Wunderground v.1.15,2013-07-06 10:56:00,
2013-07-06 07:02:00,69.1,67.9,30.14,SSE,163,0.0,0.0,96,0.00,,,0.16,Wunderground v.1.15,2013-07-06 11:02:00,
2013-07-06 07:08:00,69.3,68.1,30.15,SSE,163,0.0,0.0,96,0.00,,,0.16,Wunderground v.1.15,2013-07-06 11:08:00,
2013-07-06 07:13:00,69.5,68.3,30.15,SSE,163,0.0,0.0,96,0.00,,,0.16,Wunderground v.1.15,2013-07-06 11:13:00,
2013-07-06 07:19:00,69.9,69.0,30.15,SSE,163,0.0,0.0,97,0.00,,,0.16,Wunderground v.1.15,2013-07-06 11:19:00,
2013-07-06 07:24:00,70.3,69.4,30.15,SSE,163,0.0,0.0,97,0.00,,,0.16,Wunderground v.1.15,2013-07-06 11:24:00,
2013-07-06 07:30:00,70.8,69.9,30.15,SSE,163,0.0,0.0,97,0.00,,,0.16,Wunderground v.1.15,2013-07-06 11:30:00,
2013-07-06 07:35:00,71.3,70.4,30.15,SSE,163,0.0,0.0,97,0.00,,,0.16,Wunderground v.1.15,2013-07-06 11:35:00,
2013-07-06 07:41:00,71.6,70.7,30.15,SSE,163,0.0,0.0,97,0.00,,,0.16,Wunderground v.1.15,2013-07-06 11:41:00,
2013-07-06 07:47:00,72.1,71.2,30.15,SSE,163,0.0,0.0,97,0.00,,,0.16,Wunderground v.1.15,2013-07-06 11:47:00,
2013-07-06 07:52:00,72.6,71.7,30.15,East,91,0.0,0.0,97,0.00,,,0.16,Wunderground v.1.15,2013-07-06 11:52:00,
2013-07-06 07:58:00,73.3,72.4,30.15,East,91,0.0,0.0,97,0.00,,,0.16,Wunderground v.1.15,2013-07-06 11:58:00,
2013-07-06 08:03:00,73.5,72.3,30.16,East,91,0.0,0.0,96,0.00,,,0.16,Wunderground v.1.15,2013-07-06 12:03:00,
2013-07-06 08:09:00,73.6,72.1,30.15,East,91,0.0,0.0,95,0.00,,,0.16,Wunderground v.1.15,2013-07-06 12:09:00,
2013-07-06 08:14:00,73.9,72.4,30.15,East,91,0.0,0.0,95,0.00,,,0.16,Wunderground v.1.15,2013-07-06 12:14:00,
2013-07-06 08:20:00,74.7,72.9,30.15,SE,128,0.0,1.0,94,0.00,,,0.16,Wunderground v.1.15,2013-07-06 12:20:00,
2013-07-06 08:25:00,75.3,72.8,30.15,ESE,117,1.0,2.0,92,0.00,,,0.16,Wunderground v.1.15,2013-07-06 12:25:00,
2013-07-06 08:30:00,75.8,72.7,30.16,ESE,119,1.0,1.0,90,0.00,,,0.16,Wunderground v.1.15,2013-07-06 12:30:00,
2013-07-06 08:36:00,76.2,72.4,30.16,SSE,153,1.0,3.0,88,0.00,,,0.16,Wunderground v.1.15,2013-07-06 12:36:00,
2013-07-06 08:41:00,76.4,72.6,30.16,ESE,117,1.0,3.0,88,0.00,,,0.16,Wunderground v.1.15,2013-07-06 12:41:00,
2013-07-06 08:47:00,76.9,73.1,30.16,ESE,117,1.0,3.0,88,0.00,,,0.16,Wunderground v.1.15,2013-07-06 12:47:00,
2013-07-06 08:52:00,77.3,72.4,30.16,SE,128,1.0,2.0,85,0.00,,,0.16,Wunderground v.1.15,2013-07-06 12:52:00,
2013-07-06 08:57:00,77.2,72.3,30.16,ESE,115,1.0,3.0,85,0.00,,,0.16,Wunderground v.1.15,2013-07-06 12:57:00,
2013-07-06 09:03:00,77.5,72.6,30.15,ESE,103,1.0,2.0,85,0.00,,,0.16,Wunderground v.1.15,2013-07-06 13:03:00,
2013-07-06 09:08:00,78.0,73.1,30.15,South,183,1.0,2.0,85,0.00,,,0.16,Wunderground v.1.15,2013-07-06 13:08:00,
2013-07-06 09:14:00,78.5,73.3,30.16,ESE,117,0.0,2.0,84,0.00,,,0.16,Wunderground v.1.15,2013-07-06 13:14:00,
2013-07-06 09:19:00,78.7,72.4,30.16,ESE,111,1.0,3.0,81,0.00,,,0.16,Wunderground v.1.15,2013-07-06 13:19:00,
2013-07-06 09:25:00,79.1,73.1,30.15,ESE,107,1.0,1.0,82,0.00,,,0.16,Wunderground v.1.15,2013-07-06 13:25:00,
2013-07-06 09:30:00,79.6,72.9,30.15,ESE,123,1.0,2.0,80,0.00,,,0.16,Wunderground v.1.15,2013-07-06 13:30:00,
2013-07-06 09:36:00,79.6,72.1,30.15,SE,125,1.0,3.0,78,0.00,,,0.16,Wunderground v.1.15,2013-07-06 13:36:00,
2013-07-06 09:42:00,79.6,73.6,30.15,SE,125,0.0,1.0,82,0.00,,,0.16,Wunderground v.1.15,2013-07-06 13:42:00,
2013-07-06 09:48:00,79.8,73.8,30.15,ENE,71,0.0,1.0,82,0.00,,,0.16,Wunderground v.1.15,2013-07-06 13:48:00,
2013-07-06 09:53:00,79.8,73.4,30.15,ENE,71,0.0,0.0,81,0.00,,,0.16,Wunderground v.1.15,2013-07-06 13:53:00,
2013-07-06 09:58:00,80.2,73.5,30.14,ESE,115,0.0,1.0,80,0.00,,,0.16,Wunderground v.1.15,2013-07-06 13:58:00,
2013-07-06 10:04:00,80.0,73.3,30.15,ESE,115,0.0,0.0,80,0.00,,,0.16,Wunderground v.1.15,2013-07-06 14:04:00,
2013-07-06 10:09:00,80.0,72.9,30.14,ESE,115,0.0,0.0,79,0.00,,,0.16,Wunderground v.1.15,2013-07-06 14:09:00,
2013-07-06 10:15:00,80.6,73.1,30.14,NE,35,0.0,1.0,78,0.00,,,0.16,Wunderground v.1.15,2013-07-06 14:15:00,
2013-07-06 10:21:00,81.1,74.0,30.14,NNE,26,0.0,0.0,79,0.00,,,0.16,Wunderground v.1.15,2013-07-06 14:21:00,
2013-07-06 10:27:00,81.2,72.9,30.14,NNE,26,0.0,0.0,76,0.00,,,0.16,Wunderground v.1.15,2013-07-06 14:27:00,
2013-07-06 10:32:00,81.3,73.4,30.14,SE,142,0.0,1.0,77,0.00,,,0.16,Wunderground v.1.15,2013-07-06 14:32:00,
2013-07-06 10:38:00,81.4,72.3,30.14,East,91,0.0,2.0,74,0.00,,,0.16,Wunderground v.1.15,2013-07-06 14:38:00,
2013-07-06 10:43:00,81.5,72.8,30.14,ESE,103,0.0,1.0,75,0.00,,,0.16,Wunderground v.1.15,2013-07-06 14:43:00,
2013-07-06 10:49:00,81.6,74.1,30.14,ESE,107,0.0,1.0,78,0.00,,,0.16,Wunderground v.1.15,2013-07-06 14:49:00,
2013-07-06 10:54:00,81.5,73.2,30.14,ESE,117,0.0,2.0,76,0.00,,,0.16,Wunderground v.1.15,2013-07-06 14:54:00,
2013-07-06 11:00:00,81.7,73.0,30.14,SW,215,0.0,0.0,75,0.00,,,0.16,Wunderground v.1.15,2013-07-06 15:00:00,
2013-07-06 11:06:00,81.9,73.2,30.14,ESE,123,0.0,2.0,75,0.00,,,0.16,Wunderground v.1.15,2013-07-06 15:06:00,
2013-07-06 11:12:00,82.1,73.4,30.14,ESE,119,0.0,1.0,75,0.00,,,0.16,Wunderground v.1.15,2013-07-06 15:12:00,
2013-07-06 11:17:00,82.4,73.7,30.14,ESE,115,1.0,1.0,75,0.00,,,0.16,Wunderground v.1.15,2013-07-06 15:17:00,
2013-07-06 11:23:00,82.7,74.0,30.14,ESE,118,1.0,2.0,75,0.00,,,0.16,Wunderground v.1.15,2013-07-06 15:23:00,
2013-07-06 11:28:00,83.0,73.4,30.14,SE,128,0.0,2.0,73,0.00,,,0.16,Wunderground v.1.15,2013-07-06 15:28:00,
2013-07-06 11:34:00,83.3,74.1,30.14,SE,126,0.0,0.0,74,0.00,,,0.16,Wunderground v.1.15,2013-07-06 15:34:00,
2013-07-06 11:39:00,83.5,74.7,30.14,South,187,0.0,4.0,75,0.00,,,0.16,Wunderground v.1.15,2013-07-06 15:39:00,
2013-07-06 11:44:00,83.9,72.6,30.14,East,84,0.0,1.0,69,0.00,,,0.16,Wunderground v.1.15,2013-07-06 15:44:00,
2013-07-06 11:50:00,84.4,75.2,30.13,East,96,0.0,0.0,74,0.00,,,0.16,Wunderground v.1.15,2013-07-06 15:50:00,
2013-07-06 11:55:00,84.7,72.5,30.13,ENE,78,0.0,2.0,67,0.00,,,0.16,Wunderground v.1.15,2013-07-06 15:55:00,
2013-07-06 12:00:00,85.1,73.8,30.13,SSE,150,1.0,1.0,69,0.00,,,0.16,Wunderground v.1.15,2013-07-06 16:00:00,
2013-07-06 12:07:00,85.4,73.6,30.13,East,86,1.0,2.0,68,0.00,,,0.16,Wunderground v.1.15,2013-07-06 16:07:00,
2013-07-06 12:13:00,85.1,73.8,30.12,SE,142,1.0,1.0,69,0.00,,,0.16,Wunderground v.1.15,2013-07-06 16:13:00,
2013-07-06 12:18:00,85.1,73.8,30.12,ESE,120,1.0,2.0,69,0.00,,,0.16,Wunderground v.1.15,2013-07-06 16:18:00,
2013-07-06 12:24:00,84.8,73.1,30.12,ESE,105,1.0,3.0,68,0.00,,,0.16,Wunderground v.1.15,2013-07-06 16:24:00,
2013-07-06 12:30:00,84.8,74.3,30.12,ESE,105,0.0,0.0,71,0.00,,,0.16,Wunderground v.1.15,2013-07-06 16:30:00,
2013-07-06 12:37:00,84.8,72.6,30.12,ENE,63,0.0,0.0,67,0.00,,,0.16,Wunderground v.1.15,2013-07-06 16:37:00,
2013-07-06 12:42:00,85.1,75.1,30.11,ESE,104,0.0,1.0,72,0.00,,,0.16,Wunderground v.1.15,2013-07-06 16:42:00,
2013-07-06 12:47:00,85.0,74.1,30.11,East,85,0.0,1.0,70,0.00,,,0.16,Wunderground v.1.15,2013-07-06 16:47:00,
2013-07-06 12:56:00,84.9,73.2,30.11,South,173,1.0,2.0,68,0.00,,,0.16,Wunderground v.1.15,2013-07-06 16:56:00,
2013-07-06 13:03:00,85.4,71.8,30.11,SW,217,1.0,1.0,64,0.00,,,0.16,Wunderground v.1.15,2013-07-06 17:03:00,
2013-07-06 13:16:00,85.1,74.2,30.10,NE,36,0.0,2.0,70,0.00,,,0.16,Wunderground v.1.15,2013-07-06 17:16:00,
2013-07-06 13:21:00,86.0,71.5,30.10,ESE,118,0.0,1.0,62,0.00,,,0.16,Wunderground v.1.15,2013-07-06 17:21:00,
2013-07-06 13:27:00,86.0,72.9,30.10,ENE,61,1.0,1.0,65,0.00,,,0.16,Wunderground v.1.15,2013-07-06 17:27:00,
2013-07-06 13:32:00,85.8,74.4,30.10,ESE,105,0.0,1.0,69,0.00,,,0.16,Wunderground v.1.15,2013-07-06 17:32:00,
2013-07-06 13:38:00,85.7,72.6,30.09,East,92,0.0,2.0,65,0.00,,,0.16,Wunderground v.1.15,2013-07-06 17:38:00,
2013-07-06 13:46:00,86.1,74.7,30.09,SE,125,0.0,2.0,69,0.00,,,0.16,Wunderground v.1.15,2013-07-06 17:46:00,
2013-07-06 13:51:00,86.7,74.4,30.09,East,96,1.0,1.0,67,0.00,,,0.16,Wunderground v.1.15,2013-07-06 17:51:00,
2013-07-06 13:57:00,87.4,74.2,30.09,South,188,0.0,3.0,65,0.00,,,0.16,Wunderground v.1.15,2013-07-06 17:57:00,
2013-07-06 14:02:00,87.1,73.4,30.08,ENE,72,0.0,0.0,64,0.00,,,0.16,Wunderground v.1.15,2013-07-06 18:02:00,
2013-07-06 14:08:00,86.8,71.7,30.08,ESE,105,1.0,3.0,61,0.00,,,0.16,Wunderground v.1.15,2013-07-06 18:08:00,
2013-07-06 14:14:00,86.9,73.3,30.08,East,91,1.0,1.0,64,0.00,,,0.16,Wunderground v.1.15,2013-07-06 18:14:00,
2013-07-06 14:20:00,86.8,71.7,30.08,ENE,63,0.0,1.0,61,0.00,,,0.16,Wunderground v.1.15,2013-07-06 18:20:00,
2013-07-06 14:25:00,86.9,71.3,30.08,NE,52,0.0,1.0,60,0.00,,,0.16,Wunderground v.1.15,2013-07-06 18:25:00,
2013-07-06 14:31:00,86.5,73.8,30.07,NE,55,0.0,0.0,66,0.00,,,0.16,Wunderground v.1.15,2013-07-06 18:31:00,
2013-07-06 14:37:00,86.1,73.0,30.07,SE,126,0.0,2.0,65,0.00,,,0.16,Wunderground v.1.15,2013-07-06 18:37:00,
2013-07-06 14:43:00,86.3,72.7,30.07,SSW,198,0.0,4.0,64,0.00,,,0.16,Wunderground v.1.15,2013-07-06 18:43:00,
2013-07-06 14:49:00,86.5,70.5,30.07,ESE,118,1.0,4.0,59,0.00,,,0.16,Wunderground v.1.15,2013-07-06 18:49:00,
2013-07-06 14:55:00,87.2,73.1,30.07,ESE,113,1.0,4.0,63,0.00,,,0.16,Wunderground v.1.15,2013-07-06 18:55:00,
2013-07-06 15:01:00,87.5,73.3,30.06,SE,134,1.0,1.0,63,0.00,,,0.16,Wunderground v.1.15,2013-07-06 19:01:00,
2013-07-06 15:07:00,87.7,71.6,30.06,South,179,1.0,3.0,59,0.00,,,0.16,Wunderground v.1.15,2013-07-06 19:07:00,
2013-07-06 15:13:00,87.5,73.8,30.06,East,97,1.0,1.0,64,0.00,,,0.16,Wunderground v.1.15,2013-07-06 19:13:00,
2013-07-06 15:18:00,87.0,74.3,30.06,East,97,0.0,1.0,66,0.00,,,0.16,Wunderground v.1.15,2013-07-06 19:18:00,
2013-07-06 15:25:00,86.7,71.6,30.06,NE,56,0.0,1.0,61,0.00,,,0.16,Wunderground v.1.15,2013-07-06 19:25:00,
2013-07-06 15:33:00,87.3,71.7,30.06,ESE,119,1.0,2.0,60,0.00,,,0.16,Wunderground v.1.15,2013-07-06 19:33:00,
2013-07-06 15:39:00,87.5,70.4,30.05,SE,134,1.0,5.0,57,0.00,,,0.16,Wunderground v.1.15,2013-07-06 19:39:00,
2013-07-06 15:44:00,87.7,70.1,30.05,SE,130,2.0,3.0,56,0.00,,,0.16,Wunderground v.1.15,2013-07-06 19:44:00,
2013-07-06 15:50:00,87.4,72.3,30.05,ESE,113,1.0,1.0,61,0.00,,,0.16,Wunderground v.1.15,2013-07-06 19:50:00,
2013-07-06 15:57:00,86.8,74.5,30.05,ESE,107,0.0,2.0,67,0.00,,,0.16,Wunderground v.1.15,2013-07-06 19:57:00,
2013-07-06 16:03:00,86.3,72.7,30.04,SSE,162,0.0,2.0,64,0.00,,,0.16,Wunderground v.1.15,2013-07-06 20:03:00,
2013-07-06 16:08:00,85.9,72.3,30.04,East,82,0.0,2.0,64,0.00,,,0.16,Wunderground v.1.15,2013-07-06 20:08:00,
2013-07-06 16:13:00,84.4,72.7,30.04,East,82,0.0,0.0,68,0.00,,,0.16,Wunderground v.1.15,2013-07-06 20:13:00,
2013-07-06 16:19:00,82.9,73.4,30.04,East,82,0.0,0.0,73,0.00,,,0.16,Wunderground v.1.15,2013-07-06 20:19:00,
2013-07-06 16:25:00,81.9,72.0,30.03,East,82,0.0,0.0,72,0.00,,,0.16,Wunderground v.1.15,2013-07-06 20:25:00,
2013-07-06 16:30:00,81.7,71.8,30.03,East,82,0.0,0.0,72,0.00,,,0.16,Wunderground v.1.15,2013-07-06 20:30:00,
2013-07-06 16:39:00,81.8,70.2,30.03,ESE,114,0.0,1.0,68,0.00,,,0.16,Wunderground v.1.15,2013-07-06 20:39:00,
2013-07-06 16:45:00,82.2,73.5,30.02,ESE,117,0.0,0.0,75,0.00,,,0.16,Wunderground v.1.15,2013-07-06 20:45:00,
2013-07-06 16:51:00,82.1,73.0,30.02,SSE,166,0.0,0.0,74,0.00,,,0.16,Wunderground v.1.15,2013-07-06 20:51:00,
2013-07-06 16:57:00,82.2,73.1,30.02,East,91,0.0,0.0,74,0.00,,,0.16,Wunderground v.1.15,2013-07-06 20:57:00,
2013-07-06 17:02:00,81.9,72.8,30.01,East,91,0.0,0.0,74,0.00,,,0.16,Wunderground v.1.15,2013-07-06 21:02:00,
2013-07-06 17:08:00,82.0,72.9,30.02,NNE,24,0.0,1.0,74,0.00,,,0.16,Wunderground v.1.15,2013-07-06 21:08:00,
2013-07-06 17:13:00,82.0,71.7,30.02,NNE,24,0.0,0.0,71,0.00,,,0.16,Wunderground v.1.15,2013-07-06 21:13:00,
2013-07-06 17:19:00,82.0,71.2,30.02,SE,139,0.0,0.0,70,0.00,,,0.16,Wunderground v.1.15,2013-07-06 21:19:00,
2013-07-06 17:25:00,81.9,72.0,30.01,South,182,0.0,0.0,72,0.00,,,0.16,Wunderground v.1.15,2013-07-06 21:25:00,
2013-07-06 17:31:00,82.1,71.8,30.01,South,172,0.0,0.0,71,0.00,,,0.16,Wunderground v.1.15,2013-07-06 21:31:00,
2013-07-06 17:37:00,82.1,71.3,30.01,NNE,20,0.0,1.0,70,0.00,,,0.16,Wunderground v.1.15,2013-07-06 21:37:00,
2013-07-06 17:42:00,81.8,71.1,30.01,NNE,20,0.0,2.0,70,0.00,,,0.16,Wunderground v.1.15,2013-07-06 21:42:00,
2013-07-06 17:48:00,81.4,71.5,30.01,NNE,20,0.0,2.0,72,0.00,,,0.16,Wunderground v.1.15,2013-07-06 21:48:00,
2013-07-06 17:53:00,81.1,72.4,30.00,NNE,20,0.0,1.0,75,0.00,,,0.16,Wunderground v.1.15,2013-07-06 21:53:00,
2013-07-06 17:59:00,80.7,71.2,30.00,NNE,20,0.0,1.0,73,0.00,,,0.16,Wunderground v.1.15,2013-07-06 21:59:00,
2013-07-06 18:04:00,80.6,68.6,30.00,NNE,13,0.0,0.0,67,0.00,,,0.16,Wunderground v.1.15,2013-07-06 22:04:00,
2013-07-06 18:12:00,80.8,72.1,30.00,NNE,13,0.0,0.0,75,0.00,,,0.16,Wunderground v.1.15,2013-07-06 22:12:00,
2013-07-06 18:18:00,80.8,72.9,30.00,NNE,13,0.0,0.0,77,0.00,,,0.16,Wunderground v.1.15,2013-07-06 22:18:00,
2013-07-06 18:23:00,80.5,71.4,30.00,NNE,13,0.0,0.0,74,0.00,,,0.16,Wunderground v.1.15,2013-07-06 22:23:00,
2013-07-06 18:29:00,80.3,71.3,30.00,NNE,13,0.0,0.0,74,0.00,,,0.16,Wunderground v.1.15,2013-07-06 22:29:00,
2013-07-06 18:35:00,80.0,71.4,30.00,NNE,13,0.0,0.0,75,0.00,,,0.16,Wunderground v.1.15,2013-07-06 22:35:00,
2013-07-06 18:41:00,79.9,72.0,30.00,NNE,13,0.0,0.0,77,0.00,,,0.16,Wunderground v.1.15,2013-07-06 22:41:00,
2013-07-06 18:47:00,79.9,72.0,30.00,NNE,13,0.0,0.0,77,0.00,,,0.16,Wunderground v.1.15,2013-07-06 22:47:00,
2013-07-06 18:53:00,79.9,72.4,30.00,NNE,13,0.0,0.0,78,0.00,,,0.16,Wunderground v.1.15,2013-07-06 22:53:00,
2013-07-06 18:59:00,79.6,72.1,30.00,NNE,13,0.0,0.0,78,0.00,,,0.16,Wunderground v.1.15,2013-07-06 22:59:00,
2013-07-06 19:04:00,79.4,71.6,30.00,NNE,13,0.0,0.0,77,0.00,,,0.16,Wunderground v.1.15,2013-07-06 23:04:00,
2013-07-06 19:10:00,79.1,72.4,30.00,NNE,13,0.0,0.0,80,0.00,,,0.16,Wunderground v.1.15,2013-07-06 23:10:00,
2013-07-06 19:15:00,78.9,71.8,30.00,NNE,13,0.0,0.0,79,0.00,,,0.16,Wunderground v.1.15,2013-07-06 23:15:00,
2013-07-06 19:22:00,78.7,72.0,30.00,NNE,13,0.0,0.0,80,0.00,,,0.16,Wunderground v.1.15,2013-07-06 23:22:00,
2013-07-06 19:27:00,78.5,71.4,30.01,NNE,13,0.0,0.0,79,0.00,,,0.16,Wunderground v.1.15,2013-07-06 23:27:00,
2013-07-06 19:34:00,78.4,71.7,30.01,NNE,13,0.0,0.0,80,0.00,,,0.16,Wunderground v.1.15,2013-07-06 23:34:00,
2013-07-06 19:39:00,78.2,71.2,30.01,NNE,13,0.0,0.0,79,0.00,,,0.16,Wunderground v.1.15,2013-07-06 23:39:00,
2013-07-06 19:45:00,78.1,72.2,30.01,NNE,13,0.0,0.0,82,0.00,,,0.16,Wunderground v.1.15,2013-07-06 23:45:00,
2013-07-06 19:50:00,78.0,72.1,30.01,NNE,13,0.0,0.0,82,0.00,,,0.16,Wunderground v.1.15,2013-07-06 23:50:00,
2013-07-06 19:56:00,77.9,72.0,30.01,NNE,13,0.0,0.0,82,0.00,,,0.16,Wunderground v.1.15,2013-07-06 23:56:00,
2013-07-06 20:02:00,77.7,71.4,30.00,NNE,13,0.0,0.0,81,0.00,,,0.16,Wunderground v.1.15,2013-07-07 00:02:00,
2013-07-06 20:08:00,77.5,71.6,30.00,NNE,13,0.0,0.0,82,0.00,,,0.16,Wunderground v.1.15,2013-07-07 00:08:00,
2013-07-06 20:14:00,77.3,71.0,30.00,NNE,13,0.0,0.0,81,0.00,,,0.16,Wunderground v.1.15,2013-07-07 00:14:00,
2013-07-06 20:22:00,77.0,71.4,30.00,NNE,13,0.0,0.0,83,0.00,,,0.16,Wunderground v.1.15,2013-07-07 00:22:00,
2013-07-06 20:27:00,76.9,71.0,30.00,NNE,13,0.0,0.0,82,0.00,,,0.16,Wunderground v.1.15,2013-07-07 00:27:00,
2013-07-06 20:34:00,76.8,71.9,30.00,NNE,13,0.0,0.0,85,0.00,,,0.16,Wunderground v.1.15,2013-07-07 00:34:00,
2013-07-06 20:41:00,76.5,71.3,30.00,NNE,13,0.0,0.0,84,0.00,,,0.16,Wunderground v.1.15,2013-07-07 00:41:00,
2013-07-06 20:47:00,76.3,70.8,30.01,NNE,13,0.0,0.0,83,0.00,,,0.16,Wunderground v.1.15,2013-07-07 00:47:00,
2013-07-06 20:52:00,76.3,71.1,30.01,NNE,13,0.0,0.0,84,0.00,,,0.16,Wunderground v.1.15,2013-07-07 00:52:00,
2013-07-06 20:58:00,76.2,71.4,30.01,NNE,13,0.0,0.0,85,0.00,,,0.16,Wunderground v.1.15,2013-07-07 00:58:00,
2013-07-06 21:03:00,76.0,70.8,30.01,NNE,13,0.0,0.0,84,0.00,,,0.16,Wunderground v.1.15,2013-07-07 01:03:00,
2013-07-06 21:09:00,76.0,71.5,30.02,NNE,13,0.0,0.0,86,0.00,,,0.16,Wunderground v.1.15,2013-07-07 01:09:00,
2013-07-06 21:18:00,75.9,71.8,30.02,NNE,13,0.0,0.0,87,0.00,,,0.16,Wunderground v.1.15,2013-07-07 01:18:00,
2013-07-06 21:23:00,75.7,70.9,30.02,NNE,13,0.0,0.0,85,0.00,,,0.16,Wunderground v.1.15,2013-07-07 01:23:00,
2013-07-06 21:28:00,75.6,70.4,30.02,NNE,13,0.0,0.0,84,0.00,,,0.16,Wunderground v.1.15,2013-07-07 01:28:00,
2013-07-06 21:34:00,75.7,70.9,30.03,NNE,13,0.0,0.0,85,0.00,,,0.16,Wunderground v.1.15,2013-07-07 01:34:00,
2013-07-06 21:40:00,75.6,70.8,30.03,NNE,13,0.0,0.0,85,0.00,,,0.16,Wunderground v.1.15,2013-07-07 01:40:00,
2013-07-06 21:45:00,75.4,70.9,30.03,NNE,13,0.0,0.0,86,0.00,,,0.16,Wunderground v.1.15,2013-07-07 01:45:00,
2013-07-06 21:52:00,75.3,70.8,30.04,NNE,13,0.0,0.0,86,0.00,,,0.16,Wunderground v.1.15,2013-07-07 01:52:00,
2013-07-06 21:58:00,75.3,70.5,30.04,NNE,13,0.0,0.0,85,0.00,,,0.16,Wunderground v.1.15,2013-07-07 01:58:00,
2013-07-06 22:05:00,75.4,71.3,30.03,NNE,13,0.0,0.0,87,0.00,,,0.16,Wunderground v.1.15,2013-07-07 02:05:00,
2013-07-06 22:10:00,75.3,71.5,30.03,NNE,13,0.0,0.0,88,0.00,,,0.16,Wunderground v.1.15,2013-07-07 02:10:00,
2013-07-06 22:16:00,75.2,70.7,30.03,NNE,13,0.0,0.0,86,0.00,,,0.16,Wunderground v.1.15,2013-07-07 02:16:00,
2013-07-06 22:23:00,75.0,70.9,30.04,NNE,13,0.0,0.0,87,0.00,,,0.16,Wunderground v.1.15,2013-07-07 02:23:00,
2013-07-06 22:29:00,74.9,71.1,30.04,NNE,13,0.0,0.0,88,0.00,,,0.16,Wunderground v.1.15,2013-07-07 02:29:00,
2013-07-06 22:34:00,74.7,70.6,30.05,NNE,13,0.0,0.0,87,0.00,,,0.16,Wunderground v.1.15,2013-07-07 02:34:00,
2013-07-06 22:41:00,74.6,70.8,30.04,NNE,13,0.0,0.0,88,0.00,,,0.16,Wunderground v.1.15,2013-07-07 02:41:00,
2013-07-06 22:48:00,74.4,70.6,30.05,NNE,13,0.0,0.0,88,0.00,,,0.16,Wunderground v.1.15,2013-07-07 02:48:00,
2013-07-06 22:54:00,74.2,70.7,30.05,NNE,13,0.0,0.0,89,0.00,,,0.16,Wunderground v.1.15,2013-07-07 02:54:00,
2013-07-06 22:59:00,74.1,70.6,30.05,NNE,13,0.0,0.0,89,0.00,,,0.16,Wunderground v.1.15,2013-07-07 02:59:00,
2013-07-06 23:05:00,74.0,70.9,30.05,NNE,13,0.0,0.0,90,0.00,,,0.16,Wunderground v.1.15,2013-07-07 03:05:00,
2013-07-06 23:10:00,73.9,70.8,30.05,NNE,13,0.0,0.0,90,0.00,,,0.16,Wunderground v.1.15,2013-07-07 03:10:00,
2013-07-06 23:16:00,73.7,70.6,30.05,NNE,13,0.0,0.0,90,0.00,,,0.16,Wunderground v.1.15,2013-07-07 03:16:00,
2013-07-06 23:22:00,73.7,70.6,30.05,NNE,13,0.0,0.0,90,0.00,,,0.16,Wunderground v.1.15,2013-07-07 03:22:00,
2013-07-06 23:29:00,73.6,70.8,30.05,NNE,13,0.0,0.0,91,0.00,,,0.16,Wunderground v.1.15,2013-07-07 03:29:00,
2013-07-06 23:36:00,73.6,70.8,30.06,NNE,13,0.0,0.0,91,0.00,,,0.16,Wunderground v.1.15,2013-07-07 03:36:00,
2013-07-06 23:43:00,73.6,70.8,30.07,NNE,13,0.0,0.0,91,0.00,,,0.16,Wunderground v.1.15,2013-07-07 03:43:00,
2013-07-06 23:50:00,73.5,70.7,30.07,NNE,13,0.0,0.0,91,0.00,,,0.16,Wunderground v.1.15,2013-07-07 03:50:00,
2013-07-06 23:55:00,73.5,70.7,30.07,NNE,13,0.0,0.0,91,0.00,,,0.16,Wunderground v.1.15,2013-07-07 03:55:00,